{"data":{"norad_id":62855,"intl_designator":"2025-022B","name":"STARLINK-32867","alt_names":[],"object_type":"PAYLOAD","status":"ACTIVE","operator":null,"country":"US","launch_date":"2025-02-01","launch_site_code":"AFWTR","launch_vehicle":null,"mission":null,"orbit_class":"UNKNOWN","rcs_meters":null,"size_class":null,"mass_kg":null,"dimensions":null,"purposes":["comms"],"wikipedia_slug":null,"has_3d_model":false,"image_url":null,"decayed_at":null,"tle_current":{"epoch":"2026-05-25T05:35:27.038112Z","epoch_age_seconds":51431,"freshness":"FRESH","line1":"1 62855U 25022B   26145.23295183  .00026707  00000+0  90983-3 0  9991","line2":"2 62855  53.1594 133.7519 0002222  94.3320 265.7934 15.30226107 73624","mean_motion":15.30226107,"eccentricity":0.0002222,"inclination_deg":53.1594,"raan_deg":133.7519,"arg_perigee_deg":94.332,"mean_anomaly_deg":265.7934,"bstar":0.00090983,"rev_number":7362,"period_min":94.103740186678,"perigee_km":473.614322222,"apogee_km":476.65991724081,"semimajor_km":6853.2741197314,"source":"CELESTRAK","updated_at":"2026-05-25T13:38:19.782994Z"}}}